Flag for Nepal Weather past 2 weeks in Kathmandu, Nepal

Now
75 °F

Partly sunny.


Feels Like: 76 °F
Forecast: 65 / 78 °F
Wind: 3 mph from South

Location: Kathmandu Airport

Current Time: Aug 28, 2015 at 11:01:47 AM

Latest Report: Aug 28, 2015 at 9:35 AM


Visibility: 5 mi

Pressure: 29.95 "Hg (25.78 "Hg at 1305m altitude)

Humidity: 78%

Dew point: 68 °F

Historic Weather in Kathmandu — Graph

°F

Kathmandu temperature yesterday

Maximum temperature yesterday: 84 °F (at 1:35 PM)
Minimum temperature yesterday: 68 °F (at 3:35 AM)
Average temperature yesterday: 75 °F

Past Weeks' High & Low Weather Summary

 TemperatureHumidityPressure
High84 °F (Aug 16, 12:35 PM)100% (Aug 14, 3:35 AM)29.98 "Hg (Aug 14, 3:35 AM)
Low66 °F (Aug 20, 11:35 PM)58% (Aug 16, 12:35 PM)29.77 "Hg (Aug 20, 3:35 PM)
Average74 °F87%29.87 "Hg
* Reported Aug 13 9:35 AM — Aug 28 9:35 AM, Kathmandu, Weather by CustomWeather, © 2015

Note: Actual official high and low records may vary slightly from our data, if they occured in-between our weather recording intervals... More about our weather records

Advertising

Kathmandu weather history for previous 24 hours

 ConditionsComfort  
Time TempWeatherWind HumidityBarometerVisibility
9:35 AM
Fri, Aug 28
75 °FPartly sunny.3 mph78%29.95 "Hg5 mi
8:35 AM73 °FScattered clouds.3 mph83%29.95 "Hg4 mi
7:35 AM70 °FBroken clouds.No wind94%29.95 "Hg4 mi
6:35 AM68 °FBroken clouds.No wind100%29.92 "Hg4 mi
5:35 AM68 °FLight rain. Partly cloudy.No wind100%29.92 "Hg4 mi
4:35 AM68 °FRain. Partly cloudy.No wind100%29.92 "Hg4 mi
3:35 AM68 °FRain. Partly cloudy.No wind100%29.92 "Hg4 mi
2:35 AM68 °FThunderstorms. Partly cloudy.5 mph100%29.92 "Hg4 mi
1:35 AM68 °FLight rain. Partly cloudy.No wind100%29.95 "Hg4 mi
12:35 AM72 °FRain. Partly cloudy.8 mph88%29.95 "Hg4 mi
11:35 PM
Thu, Aug 27
72 °FPartly cloudy.No wind88%29.95 "Hg4 mi
10:35 PM72 °FThunderstorms. Partly cloudy.3 mph88%29.95 "Hg4 mi
9:35 PM73 °FThunderstorms. Partly cloudy.7 mph83%29.95 "Hg4 mi
8:35 PM73 °FPartly cloudy.7 mph83%29.92 "Hg4 mi
7:35 PM75 °FThunderstorms. Partly cloudy.5 mph78%29.89 "Hg4 mi
6:35 PM75 °FBroken clouds.5 mph83%29.86 "Hg5 mi
5:35 PM77 °FBroken clouds.6 mph79%29.83 "Hg5 mi
4:35 PM77 °FBroken clouds.5 mph79%29.83 "Hg5 mi
3:35 PM81 °FBroken clouds.9 mph70%29.83 "Hg5 mi
2:35 PM82 °FScattered clouds.6 mph66%29.86 "HgN/A
1:35 PM84 °FScattered clouds.6 mph66%29.86 "HgN/A
12:35 PMN/ABroken clouds.3 mphN/AN/A4 mi
11:35 AM79 °FBroken clouds.6 mph74%29.95 "Hg4 mi
Weather by CustomWeather, © 2015

See weather overviewHow to use our weather pages